Ana Sayfa
METAR-TAF:

METAR-TAF

Havaalanları :

Port Hope, Michigan, Amerika Birleşik Devletleri

Enlem: 44-01-19N, Boylam: 082-47-35W, yükseklik: 179 m

Güncel hava durumu gözlemi

Rapor saat 00:51 UTC de 43 dakika önce yapıldı.
Rüzgar güneydan 3 kt
Sıcaklık -1°C
Nem 74%
Basınç 1017 hPa

METAR: KP58 060051Z AUTO 17003KT M01/M05 A3002 RMK AO1 SLP176 T10061050

Saat: 20:34 (01:34 UTC)


TAF: eksik

4.000'den fazla havaalanı için hava durumu gözlemleri ve tahminleri (METAR ve TAF raporları).

Kullanılabilir istasyonlar harita üzerinde sarı ve kırmızı noktalarla gösterilir.

İstasyonun adını görmek için fareyi noktanın üzerinde gezdirin.

Sonrasında hava gözlem ve tahminlerini görmek için tıklayın.

Haritayı değiştirmek için: yaklaştırmak için siyah artı işaretli yeşil düğmeye ve uzaklaştırmak için de eksi işaretli düğmeye hızla tıklayın; bitişik haritalar için yeşil okları kullanın.


METAR-TAF: